QPF
0.00 0.00 0.00 0.00 0.00 0.00 0.00 0.00 0.00 0.00 0.00 0.00 0.00 0.00 0.00 0.00 0.00 0.00 0.00 0.00 0.00 0.01 0.01 0.00 0.01 0.01 0.01 0.00 0.00 0.00 0.00 0.00 0.00 0.00 0.00 0.01 0.01 0.01 0.00 0.00 0.00 0.00 0.00
0.00 0.00 0.00 0.00 0.00 0.00 0.00 0.00 0.00 0.00 0.00 0.00 0.00 0.00 0.00 0.00 0.00 0.00 0.00 0.00 0.00 0.00 0.00 0.00 0.00 0.00 0.01 0.01 0.00 0.00 0.00 0.00 0.00 0.00 0.00 0.00 0.01 0.01 0.00 0.00 0.00 0.00 0.00
0.01 0.00 0.00 0.00 0.00 0.00 0.00 0.00 0.00 0.00 0.00 0.00 0.00 0.00 0.00 0.00 0.00 0.00 0.00 0.00 0.00 0.00 0.00 0.01 0.01 0.00 0.00 0.01 0.00 0.00 0.00 0.00 0.00 0.00 0.00 0.00 0.00 0.00 0.00 0.00 0.00 0.00 0.00
0.00 0.00 0.00 0.00 0.00 0.00 0.00 0.00 0.00 0.00 0.00 0.00 0.00 0.00 0.00 0.00 0.00 0.00 0.00 0.00 0.00 0.00 0.00 0.01 0.01 0.01 0.00 0.00 0.00 0.00 0.00 0.00 0.00 0.00 0.00 0.00 0.00 0.00 0.00 0.00 0.00 0.00 0.00
0.00 0.00 0.00 0.00 0.00 0.00 0.00 0.00 0.00 0.00 0.00 0.00 0.00 0.00 0.00 0.00 0.00 0.00 0.00 0.00 0.00 0.00 0.00 0.00 0.00 0.00 0.00 0.00 0.00 0.00 0.00 0.00 0.00 0.00 0.00 0.00 0.00 0.00 0.00 0.00 0.00 0.00 0.00
0.00 0.00 0.00 0.00 0.00 0.00 0.00 0.00 0.00 0.00 0.00 0.00 0.00 0.00 0.00 0.00 0.00 0.00 0.00 0.00 0.00 0.00 0.00 0.00 0.00 0.00 0.00 0.00 0.00 0.00 0.00 0.00 0.00 0.00 0.00 0.00 0.00 0.00 0.00 0.00 0.00 0.00 0.00
0.00 0.00 0.00 0.00 0.00 0.00 0.00 0.00 0.00 0.00 0.00 0.00 0.00 0.00 0.00 0.00 0.00 0.00 0.00 0.00 0.00 0.00 0.00 0.00 0.00 0.00 0.00 0.00 0.00 0.00 0.00 0.00 0.00 0.00 0.00 0.00 0.00 0.00 0.00 0.00 0.00 0.00 0.00
0.00 0.00 0.00 0.00 0.00 0.00 0.00 0.00 0.00 0.00 0.00 0.00 0.00 0.00 0.00 0.00 0.00 0.00 0.00 0.00 0.00 0.00 0.00 0.00 0.00 0.00 0.00 0.00 0.00 0.00 0.00 0.00 0.00 0.00 0.00 0.00 0.00 0.00 0.00 0.00 0.00 0.00 0.01
0.00 0.00 0.00 0.00 0.00 0.00 0.00 0.00 0.00 0.00 0.00 0.00 0.00 0.00 0.00 0.00 0.00 0.00 0.00 0.00 0.00 0.00 0.00 0.00 0.00 0.00 0.00 0.00 0.00 0.00 0.00 0.00 0.00 0.01 0.01 0.00 0.00 0.00 0.00 0.00 0.00 0.00 0.00
0.00 0.00 0.00 0.00 0.00 0.00 0.00 0.00 0.00 0.00 0.00 0.00 0.00 0.00 0.00 0.00 0.00 0.00 0.00 0.00 0.00 0.00 0.00 0.00 0.00 0.00 0.00 0.00 0.00 0.00 0.00 0.00 0.00 0.01 0.01 0.01 0.00 0.00 0.00 0.00 0.00 0.00 0.00
0.00 0.00 0.00 0.00 0.00 0.00 0.00 0.00 0.00 0.00 0.00 0.00 0.00 0.00 0.00 0.00 0.00 0.00 0.00 0.00 0.00 0.00 0.00 0.00 0.00 0.00 0.00 0.00 0.00 0.00 0.00 0.00 0.00 0.00 0.00 0.00 0.00 0.00 0.00 0.00 0.00 0.00 0.00
0.00 0.00 0.00 0.00 0.00 0.00 0.00 0.00 0.00 0.00 0.00 0.00 0.00 0.00 0.00 0.00 0.00 0.00 0.00 0.00 0.00 0.00 0.00 0.00 0.00 0.00 0.00 0.00 0.00 0.00 0.00 0.00 0.00 0.00 0.00 0.00 0.00 0.00 0.00 0.00 0.00 0.00 0.00
0.01 0.01 0.01 0.01 0.01 0.01 0.00 0.00 0.00 0.00 0.00 0.00 0.00 0.00 0.00 0.00 0.00 0.00 0.00 0.00 0.00 0.00 0.00 0.00 0.00 0.00 0.00 0.00 0.00 0.00 0.00 0.00 0.00 0.00 0.00 0.00 0.00 0.00 0.00 0.00 0.00 0.00 0.00
0.01 0.01 0.01 0.01 0.01 0.01 0.01 0.00 0.00 0.00 0.00 0.00 0.00 0.00 0.00 0.00 0.00 0.00 0.00 0.00 0.00 0.00 0.00 0.00 0.00 0.00 0.00 0.00 0.00 0.00 0.00 0.00 0.00 0.00 0.00 0.00 0.00 0.00 0.00 0.00 0.00 0.00 0.00
0.00 0.00 0.01 0.01 0.01 0.01 0.00 0.00 0.00 0.00 0.00 0.00 0.00 0.00 0.00 0.00 0.00 0.00 0.00 0.00 0.00 0.00 0.00 0.00 0.00 0.00 0.00 0.00 0.00 0.00 0.00 0.00 0.00 0.00 0.00 0.00 0.00 0.00 0.00 0.00 0.00 0.01 0.01
0.00 0.00 0.00 0.00 0.00 0.00 0.00 0.00 0.00 0.00 0.00 0.00 0.00 0.00 0.00 0.00 0.00 0.00 0.00 0.00 0.00 0.00 0.00 0.00 0.00 0.00 0.00 0.00 0.00 0.00 0.00 0.00 0.00 0.00 0.00 0.00 0.00 0.00 0.01 0.01 0.02 0.02 0.02
0.00 0.00 0.00 0.00 0.00 0.00 0.00 0.00 0.00 0.00 0.00 0.00 0.00 0.00 0.00 0.00 0.00 0.00 0.00 0.00 0.00 0.00 0.00 0.00 0.00 0.00 0.00 0.00 0.00 0.00 0.00 0.00 0.00 0.00 0.00 0.00 0.00 0.01 0.01 0.01 0.01 0.01 0.01
0.00 0.00 0.00 0.00 0.00 0.00 0.00 0.00 0.00 0.00 0.00 0.00 0.00 0.00 0.00 0.00 0.00 0.00 0.00 0.00 0.00 0.00 0.00 0.00 0.00 0.00 0.00 0.00 0.00 0.00 0.00 0.00 0.00 0.00 0.00 0.00 0.00 0.00 0.00 0.00 0.00 0.00 0.00
0.00 0.00 0.00 0.00 0.00 0.00 0.00 0.00 0.00 0.00 0.00 0.00 0.00 0.00 0.00 0.00 0.00 0.00 0.00 0.00 0.00 0.00 0.00 0.00 0.00 0.00 0.00 0.00 0.00 0.00 0.00 0.00 0.00 0.00 0.00 0.00 0.00 0.00 0.00 0.00 0.00 0.00 0.00
0.00 0.00 0.00 0.00 0.00 0.00 0.00 0.00 0.00 0.00 0.00 0.00 0.00 0.00 0.00 0.00 0.00 0.00 0.00 0.00 0.00 0.00 0.00 0.00 0.00 0.00 0.00 0.00 0.00 0.00 0.00 0.00 0.00 0.00 0.00 0.00 0.00 0.00 0.00 0.00 0.00 0.00 0.00
0.00 0.00 0.00 0.00 0.00 0.00 0.00 0.00 0.00 0.00 0.00 0.00 0.00 0.00 0.00 0.00 0.00 0.00 0.00 0.00 0.00 0.00 0.00 0.00 0.00 0.00 0.00 0.00 0.00 0.00 0.00 0.00 0.00 0.00 0.00 0.00 0.00 0.00 0.00 0.00 0.00 0.00 0.00
0.00 0.00 0.00 0.00 0.00 0.00 0.00 0.00 0.00 0.00 0.00 0.00 0.00 0.00 0.00 0.00 0.00 0.00 0.00 0.00 0.00 0.00 0.00 0.00 0.00 0.00 0.00 0.00 0.00 0.00 0.00 0.00 0.00 0.00 0.00 0.00 0.00 0.00 0.00 0.00 0.00 0.00 0.00
0.00 0.00 0.00 0.00 0.00 0.00 0.00 0.00 0.00 0.00 0.00 0.00 0.00 0.00 0.00 0.00 0.00 0.00 0.00 0.00 0.00 0.00 0.00 0.00 0.00 0.00 0.00 0.00 0.00 0.00 0.00 0.00 0.00 0.00 0.00 0.00 0.00 0.00 0.00 0.00 0.00 0.00 0.00
0.00 0.00 0.00 0.00 0.00 0.00 0.00 0.00 0.00 0.00 0.00 0.00 0.00 0.00 0.00 0.00 0.00 0.00 0.00 0.00 0.00 0.00 0.00 0.00 0.00 0.00 0.00 0.00 0.00 0.00 0.00 0.00 0.00 0.00 0.00 0.00 0.00 0.00 0.00 0.00 0.00 0.00 0.01
0.00 0.00 0.00 0.00 0.00 0.00 0.00 0.00 0.00 0.00 0.00 0.00 0.00 0.00 0.00 0.00 0.00 0.00 0.00 0.00 0.00 0.00 0.00 0.00 0.00 0.00 0.00 0.00 0.00 0.00 0.00 0.00 0.00 0.00 0.00 0.00 0.00 0.00 0.00 0.01 0.01 0.01 0.01
0.00 0.01 0.01 0.01 0.01 0.01 0.01 0.01 0.01 0.01 0.01 0.01 0.01 0.01 0.01 0.01 0.01 0.00 0.00 0.00 0.00 0.00 0.00 0.00 0.00 0.00 0.00 0.00 0.00 0.00 0.00 0.00 0.00 0.00 0.00 0.00 0.00 0.00 0.01 0.01 0.01 0.01 0.01
MSLP
1017.41 1017.79 1018.17 1018.52 1018.81 1019.02 1019.16 1019.25 1019.29 1019.33 1019.38 1019.45 1019.56 1019.69 1019.83 1019.95 1020.03 1020.08 1020.09 1020.06 1020.01 1019.97 1019.95 1019.98 1020.05 1020.17 1020.34 1020.54 1020.75 1020.97 1021.16 1021.32 1021.42 1021.47 1021.45 1021.37 1021.23 1021.04 1020.82 1020.59 1020.36 1020.16 1020.00
1017.37 1017.72 1018.07 1018.40 1018.68 1018.89 1019.05 1019.15 1019.23 1019.30 1019.38 1019.49 1019.64 1019.80 1019.98 1020.15 1020.29 1020.39 1020.45 1020.47 1020.45 1020.43 1020.41 1020.40 1020.42 1020.48 1020.57 1020.71 1020.86 1021.04 1021.21 1021.36 1021.48 1021.56 1021.58 1021.53 1021.42 1021.26 1021.05 1020.81 1020.57 1020.34 1020.14
1017.35 1017.67 1018.00 1018.30 1018.56 1018.77 1018.93 1019.05 1019.15 1019.25 1019.37 1019.51 1019.68 1019.88 1020.08 1020.28 1020.46 1020.60 1020.70 1020.75 1020.77 1020.77 1020.75 1020.73 1020.72 1020.74 1020.79 1020.87 1020.98 1021.12 1021.27 1021.42 1021.55 1021.65 1021.71 1021.70 1021.62 1021.49 1021.29 1021.06 1020.81 1020.56 1020.32
1017.32 1017.63 1017.93 1018.21 1018.45 1018.65 1018.82 1018.96 1019.08 1019.22 1019.36 1019.53 1019.73 1019.94 1020.15 1020.36 1020.55 1020.71 1020.82 1020.91 1020.95 1020.96 1020.95 1020.94 1020.93 1020.93 1020.95 1021.01 1021.09 1021.21 1021.34 1021.49 1021.63 1021.75 1021.83 1021.85 1021.81 1021.71 1021.54 1021.32 1021.06 1020.79 1020.52
1017.29 1017.59 1017.88 1018.13 1018.36 1018.55 1018.72 1018.88 1019.04 1019.20 1019.38 1019.57 1019.78 1020.00 1020.21 1020.41 1020.59 1020.74 1020.86 1020.94 1020.99 1021.02 1021.03 1021.03 1021.03 1021.04 1021.07 1021.11 1021.19 1021.29 1021.42 1021.56 1021.71 1021.84 1021.93 1021.98 1021.97 1021.89 1021.74 1021.54 1021.29 1021.02 1020.73
1017.23 1017.54 1017.82 1018.07 1018.28 1018.48 1018.66 1018.84 1019.02 1019.22 1019.43 1019.65 1019.87 1020.09 1020.29 1020.47 1020.62 1020.74 1020.83 1020.90 1020.95 1020.99 1021.01 1021.04 1021.06 1021.09 1021.14 1021.19 1021.27 1021.38 1021.50 1021.63 1021.77 1021.89 1021.99 1022.05 1022.05 1021.99 1021.87 1021.69 1021.46 1021.20 1020.91
1017.15 1017.48 1017.77 1018.02 1018.24 1018.44 1018.64 1018.84 1019.06 1019.29 1019.53 1019.78 1020.01 1020.22 1020.40 1020.55 1020.66 1020.74 1020.80 1020.85 1020.89 1020.93 1020.97 1021.01 1021.07 1021.13 1021.19 1021.27 1021.36 1021.46 1021.57 1021.69 1021.80 1021.91 1021.99 1022.05 1022.05 1022.01 1021.90 1021.75 1021.55 1021.31 1021.03
1017.07 1017.43 1017.74 1018.00 1018.23 1018.45 1018.67 1018.91 1019.16 1019.42 1019.70 1019.96 1020.20 1020.40 1020.56 1020.68 1020.75 1020.79 1020.82 1020.84 1020.86 1020.89 1020.95 1021.01 1021.10 1021.18 1021.28 1021.37 1021.46 1021.55 1021.64 1021.73 1021.81 1021.89 1021.94 1021.97 1021.96 1021.92 1021.83 1021.69 1021.52 1021.31 1021.07
1017.02 1017.42 1017.76 1018.04 1018.29 1018.53 1018.78 1019.04 1019.32 1019.62 1019.91 1020.19 1020.43 1020.63 1020.77 1020.86 1020.90 1020.91 1020.90 1020.90 1020.91 1020.94 1021.00 1021.09 1021.19 1021.30 1021.41 1021.51 1021.59 1021.67 1021.73 1021.77 1021.81 1021.83 1021.84 1021.82 1021.79 1021.73 1021.65 1021.53 1021.39 1021.22 1021.02
1017.00 1017.45 1017.83 1018.14 1018.42 1018.69 1018.96 1019.25 1019.55 1019.86 1020.17 1020.46 1020.70 1020.88 1021.01 1021.07 1021.09 1021.08 1021.05 1021.03 1021.04 1021.08 1021.15 1021.24 1021.36 1021.48 1021.59 1021.69 1021.76 1021.80 1021.81 1021.81 1021.79 1021.75 1021.70 1021.64 1021.57 1021.49 1021.39 1021.29 1021.16 1021.02 1020.86
1017.03 1017.53 1017.95 1018.30 1018.61 1018.91 1019.20 1019.50 1019.81 1020.13 1020.44 1020.72 1020.95 1021.12 1021.23 1021.28 1021.29 1021.27 1021.24 1021.22 1021.23 1021.28 1021.36 1021.47 1021.59 1021.71 1021.81 1021.89 1021.93 1021.94 1021.90 1021.84 1021.76 1021.66 1021.55 1021.44 1021.33 1021.22 1021.11 1021.00 1020.88 1020.76 1020.63
1017.10 1017.64 1018.10 1018.49 1018.84 1019.15 1019.46 1019.77 1020.08 1020.39 1020.68 1020.94 1021.15 1021.30 1021.40 1021.44 1021.45 1021.44 1021.42 1021.42 1021.45 1021.51 1021.61 1021.72 1021.85 1021.96 1022.05 1022.10 1022.10 1022.06 1021.98 1021.87 1021.73 1021.58 1021.41 1021.26 1021.11 1020.97 1020.83 1020.71 1020.60 1020.49 1020.37
1017.15 1017.74 1018.24 1018.67 1019.05 1019.38 1019.70 1020.01 1020.31 1020.59 1020.85 1021.08 1021.26 1021.39 1021.47 1021.52 1021.53 1021.54 1021.55 1021.58 1021.64 1021.73 1021.85 1021.97 1022.09 1022.19 1022.25 1022.27 1022.24 1022.17 1022.04 1021.89 1021.71 1021.52 1021.32 1021.13 1020.95 1020.78 1020.63 1020.49 1020.37 1020.25 1020.13
1017.17 1017.78 1018.32 1018.78 1019.19 1019.55 1019.88 1020.18 1020.46 1020.71 1020.93 1021.12 1021.26 1021.37 1021.44 1021.49 1021.53 1021.56 1021.61 1021.69 1021.79 1021.91 1022.04 1022.17 1022.29 1022.37 1022.42 1022.41 1022.35 1022.24 1022.09 1021.91 1021.71 1021.50 1021.29 1021.09 1020.89 1020.71 1020.55 1020.39 1020.25 1020.11 1019.97
1017.09 1017.73 1018.29 1018.79 1019.23 1019.62 1019.95 1020.25 1020.51 1020.73 1020.91 1021.06 1021.17 1021.26 1021.32 1021.38 1021.44 1021.52 1021.62 1021.74 1021.88 1022.03 1022.19 1022.33 1022.44 1022.51 1022.54 1022.51 1022.42 1022.29 1022.13 1021.94 1021.74 1021.54 1021.34 1021.15 1020.96 1020.78 1020.60 1020.43 1020.27 1020.10 1019.94
1016.92 1017.57 1018.16 1018.69 1019.16 1019.57 1019.92 1020.22 1020.47 1020.67 1020.82 1020.94 1021.03 1021.10 1021.17 1021.24 1021.34 1021.46 1021.60 1021.77 1021.96 1022.14 1022.32 1022.47 1022.57 1022.63 1022.63 1022.58 1022.48 1022.34 1022.18 1022.00 1021.82 1021.65 1021.47 1021.31 1021.14 1020.98 1020.81 1020.63 1020.44 1020.25 1020.05
1016.66 1017.32 1017.93 1018.49 1019.00 1019.44 1019.82 1020.13 1020.38 1020.57 1020.71 1020.82 1020.90 1020.97 1021.05 1021.15 1021.28 1021.45 1021.64 1021.85 1022.07 1022.29 1022.48 1022.62 1022.72 1022.76 1022.73 1022.66 1022.55 1022.41 1022.25 1022.09 1021.94 1021.80 1021.67 1021.54 1021.41 1021.26 1021.11 1020.93 1020.72 1020.50 1020.26
1016.39 1017.05 1017.68 1018.27 1018.81 1019.30 1019.71 1020.05 1020.31 1020.52 1020.66 1020.77 1020.86 1020.95 1021.05 1021.18 1021.35 1021.55 1021.79 1022.03 1022.28 1022.51 1022.70 1022.83 1022.91 1022.92 1022.87 1022.77 1022.64 1022.49 1022.34 1022.20 1022.08 1021.97 1021.88 1021.79 1021.69 1021.57 1021.42 1021.24 1021.03 1020.78 1020.50
1016.18 1016.83 1017.48 1018.10 1018.68 1019.21 1019.66 1020.04 1020.34 1020.57 1020.74 1020.87 1020.98 1021.10 1021.23 1021.39 1021.59 1021.83 1022.08 1022.35 1022.60 1022.83 1023.00 1023.11 1023.15 1023.12 1023.03 1022.90 1022.75 1022.58 1022.43 1022.30 1022.19 1022.11 1022.04 1021.98 1021.90 1021.80 1021.66 1021.48 1021.25 1020.98 1020.67
1016.11 1016.76 1017.42 1018.07 1018.68 1019.25 1019.74 1020.16 1020.50 1020.77 1020.97 1021.14 1021.29 1021.43 1021.59 1021.78 1022.01 1022.26 1022.52 1022.79 1023.03 1023.22 1023.36 1023.43 1023.42 1023.34 1023.21 1023.03 1022.84 1022.65 1022.48 1022.34 1022.23 1022.15 1022.09 1022.03 1021.97 1021.87 1021.73 1021.54 1021.29 1020.99 1020.65
1016.24 1016.89 1017.56 1018.23 1018.87 1019.46 1019.99 1020.45 1020.82 1021.13 1021.38 1021.58 1021.75 1021.93 1022.11 1022.32 1022.55 1022.80 1023.05 1023.29 1023.49 1023.65 1023.73 1023.74 1023.67 1023.53 1023.34 1023.12 1022.88 1022.65 1022.45 1022.28 1022.15 1022.05 1021.98 1021.90 1021.82 1021.70 1021.54 1021.33 1021.06 1020.74 1020.37
1016.61 1017.25 1017.92 1018.59 1019.25 1019.86 1020.41 1020.89 1021.29 1021.63 1021.90 1022.13 1022.33 1022.52 1022.72 1022.92 1023.14 1023.36 1023.58 1023.77 1023.92 1024.01 1024.02 1023.96 1023.83 1023.63 1023.38 1023.10 1022.82 1022.55 1022.30 1022.10 1021.93 1021.79 1021.68 1021.57 1021.44 1021.29 1021.10 1020.85 1020.55 1020.20 1019.81
1017.18 1017.81 1018.48 1019.14 1019.79 1020.40 1020.95 1021.44 1021.85 1022.20 1022.48 1022.72 1022.93 1023.12 1023.30 1023.48 1023.67 1023.84 1024.00 1024.13 1024.20 1024.22 1024.16 1024.04 1023.84 1023.58 1023.28 1022.96 1022.63 1022.32 1022.03 1021.78 1021.57 1021.38 1021.22 1021.05 1020.87 1020.67 1020.43 1020.14 1019.81 1019.43 1019.01
1017.88 1018.51 1019.15 1019.79 1020.42 1021.01 1021.54 1022.01 1022.42 1022.76 1023.04 1023.26 1023.46 1023.62 1023.78 1023.92 1024.05 1024.16 1024.25 1024.30 1024.30 1024.24 1024.11 1023.92 1023.67 1023.37 1023.03 1022.68 1022.33 1021.99 1021.67 1021.38 1021.12 1020.89 1020.66 1020.44 1020.20 1019.94 1019.64 1019.31 1018.93 1018.53 1018.10
1018.63 1019.24 1019.85 1020.46 1021.05 1021.60 1022.10 1022.54 1022.92 1023.23 1023.48 1023.69 1023.85 1023.97 1024.08 1024.17 1024.23 1024.27 1024.29 1024.26 1024.18 1024.05 1023.87 1023.63 1023.35 1023.02 1022.67 1022.31 1021.95 1021.60 1021.27 1020.96 1020.67 1020.39 1020.11 1019.83 1019.53 1019.21 1018.86 1018.48 1018.07 1017.64 1017.20
1019.34 1019.92 1020.50 1021.07 1021.61 1022.12 1022.57 1022.96 1023.30 1023.57 1023.78 1023.95 1024.07 1024.15 1024.20 1024.23 1024.23 1024.20 1024.14 1024.04 1023.90 1023.72 1023.50 1023.23 1022.93 1022.61 1022.27 1021.92 1021.57 1021.23 1020.90 1020.58 1020.27 1019.96 1019.65 1019.32 1018.97 1018.59 1018.20 1017.78 1017.34 1016.89 1016.43
Thickness
5734 5733 5732 5731 5730 5729 5727 5725 5723 5721 5719 5717 5715 5713 5711 5709 5708 5706 5704 5702 5700 5698 5697 5696 5694 5693 5692 5691 5690 5689 5687 5684 5678 5678 5681 5683 5684 5685 5687 5689 5690 5692 5694
5734 5732 5731 5730 5729 5727 5726 5725 5723 5721 5719 5716 5714 5712 5710 5708 5707 5705 5703 5700 5698 5695 5694 5693 5691 5691 5689 5687 5686 5685 5683 5681 5678 5674 5675 5677 5679 5680 5681 5683 5685 5686 5689
5733 5731 5729 5728 5727 5726 5724 5723 5722 5720 5718 5715 5713 5710 5708 5707 5705 5703 5701 5699 5696 5694 5692 5690 5689 5688 5685 5684 5683 5681 5679 5679 5675 5672 5670 5671 5673 5674 5675 5677 5679 5680 5683
5731 5729 5727 5726 5726 5724 5723 5721 5720 5719 5716 5713 5711 5709 5707 5706 5704 5702 5700 5697 5694 5693 5691 5689 5687 5685 5683 5682 5680 5678 5676 5673 5671 5668 5666 5665 5666 5667 5668 5668 5670 5672 5674
5730 5728 5726 5725 5724 5722 5721 5719 5717 5716 5714 5712 5709 5707 5705 5704 5702 5700 5698 5695 5692 5690 5688 5687 5685 5684 5683 5681 5678 5674 5672 5669 5666 5663 5661 5659 5659 5659 5659 5660 5661 5663 5666
5729 5727 5725 5723 5721 5720 5718 5716 5714 5712 5711 5709 5707 5704 5702 5702 5700 5699 5696 5692 5689 5687 5684 5683 5682 5680 5679 5677 5675 5673 5670 5666 5662 5659 5656 5654 5653 5653 5654 5654 5653 5654 5655
5728 5726 5723 5721 5719 5717 5715 5712 5710 5709 5707 5705 5703 5701 5699 5698 5697 5696 5694 5690 5686 5683 5681 5679 5678 5676 5674 5672 5670 5668 5666 5664 5661 5657 5653 5651 5650 5650 5649 5648 5647 5646 5646
5727 5724 5722 5719 5716 5714 5711 5709 5707 5705 5703 5701 5699 5697 5695 5694 5694 5692 5689 5686 5682 5679 5677 5675 5673 5671 5669 5667 5664 5661 5659 5658 5656 5654 5651 5649 5648 5647 5645 5643 5642 5641 5641
5725 5723 5720 5718 5714 5711 5708 5706 5704 5702 5700 5697 5695 5693 5691 5690 5690 5688 5685 5681 5677 5674 5672 5671 5669 5666 5665 5662 5658 5655 5653 5651 5651 5649 5647 5645 5643 5642 5640 5637 5634 5632 5630
5726 5723 5720 5717 5713 5710 5707 5704 5701 5699 5697 5694 5691 5689 5687 5685 5685 5683 5680 5676 5671 5668 5666 5665 5664 5661 5659 5657 5652 5649 5645 5644 5643 5642 5641 5639 5637 5634 5632 5629 5625 5621 5618
5726 5721 5717 5714 5711 5708 5704 5701 5698 5695 5692 5689 5686 5683 5682 5681 5680 5678 5675 5671 5667 5663 5660 5658 5657 5656 5653 5651 5647 5643 5641 5638 5636 5633 5631 5629 5628 5626 5623 5620 5616 5611 5606
5722 5718 5714 5711 5708 5705 5700 5696 5693 5690 5686 5682 5680 5677 5676 5675 5674 5672 5670 5667 5663 5659 5655 5653 5651 5649 5647 5644 5640 5638 5635 5632 5628 5624 5621 5619 5617 5615 5613 5610 5606 5602 5597
5718 5714 5710 5706 5703 5700 5696 5691 5688 5685 5681 5677 5674 5672 5670 5669 5667 5666 5664 5661 5658 5654 5650 5648 5645 5642 5639 5636 5633 5630 5627 5622 5618 5614 5610 5607 5605 5603 5600 5597 5594 5590 5586
5714 5710 5706 5702 5698 5694 5692 5688 5684 5681 5677 5674 5671 5668 5665 5663 5661 5659 5657 5654 5652 5648 5644 5641 5638 5634 5631 5627 5624 5621 5617 5612 5608 5604 5600 5597 5594 5590 5586 5582 5578 5575 5571
5710 5706 5702 5699 5695 5690 5687 5685 5682 5680 5678 5674 5671 5667 5662 5658 5659 5656 5652 5648 5644 5641 5636 5632 5628 5624 5620 5617 5614 5610 5606 5602 5598 5594 5590 5585 5582 5577 5573 5569 5564 5560 5555
5706 5701 5697 5693 5689 5685 5681 5677 5677 5675 5673 5671 5669 5665 5661 5659 5656 5651 5647 5643 5639 5635 5628 5623 5618 5614 5611 5607 5603 5600 5596 5592 5588 5583 5578 5573 5569 5565 5560 5556 5551 5547 5543
5704 5699 5693 5689 5685 5680 5676 5673 5668 5666 5665 5664 5662 5659 5656 5653 5649 5645 5641 5636 5632 5627 5620 5615 5611 5607 5603 5599 5594 5590 5586 5582 5577 5572 5567 5562 5558 5553 5548 5544 5539 5535 5531
5700 5696 5691 5686 5681 5677 5673 5669 5665 5661 5656 5654 5654 5653 5650 5647 5643 5639 5634 5628 5621 5617 5612 5608 5604 5599 5595 5590 5586 5581 5577 5572 5566 5561 5556 5551 5546 5541 5537 5532 5527 5522 5517
5693 5689 5685 5681 5677 5673 5669 5664 5660 5656 5652 5648 5645 5644 5642 5638 5634 5630 5625 5619 5614 5609 5605 5600 5596 5591 5587 5582 5577 5572 5567 5561 5556 5551 5546 5541 5535 5530 5524 5519 5514 5509 5504
5687 5685 5680 5675 5670 5666 5662 5657 5653 5649 5645 5642 5639 5636 5632 5627 5623 5619 5615 5611 5606 5602 5598 5593 5588 5583 5579 5574 5568 5562 5557 5551 5546 5540 5535 5530 5524 5518 5512 5507 5501 5495 5489
5680 5677 5674 5669 5664 5661 5656 5652 5648 5644 5640 5636 5634 5631 5626 5621 5617 5613 5608 5603 5599 5595 5591 5585 5580 5575 5570 5564 5559 5553 5547 5542 5536 5530 5525 5519 5513 5506 5500 5494 5488 5481 5475
5673 5669 5665 5662 5658 5654 5650 5646 5642 5637 5634 5630 5626 5622 5619 5613 5609 5605 5600 5597 5592 5588 5583 5577 5572 5566 5561 5555 5550 5543 5538 5532 5526 5520 5514 5508 5501 5495 5488 5481 5475 5468 5461
5664 5660 5656 5652 5649 5646 5641 5637 5633 5629 5625 5621 5617 5613 5608 5604 5600 5596 5592 5588 5583 5578 5573 5568 5562 5557 5552 5546 5540 5534 5528 5522 5516 5509 5502 5496 5489 5482 5475 5469 5462 5456 5450
5654 5650 5646 5642 5638 5634 5630 5627 5623 5620 5616 5612 5608 5603 5599 5595 5591 5587 5582 5578 5573 5568 5563 5557 5552 5547 5541 5535 5529 5523 5517 5511 5504 5497 5490 5483 5476 5470 5463 5456 5450 5444 5438
5643 5639 5635 5631 5627 5623 5619 5616 5612 5609 5605 5601 5597 5593 5589 5584 5580 5576 5571 5566 5561 5556 5551 5546 5541 5535 5530 5524 5518 5512 5506 5499 5492 5485 5478 5470 5463 5457 5450 5444 5438 5433 5427
5630 5627 5623 5619 5615 5612 5608 5604 5600 5597 5593 5590 5586 5581 5577 5573 5568 5564 5560 5555 5549 5544 5539 5534 5529 5524 5519 5513 5507 5500 5494 5487 5480 5473 5465 5458 5451 5445 5438 5433 5427 5422 5417